OpenBCM V1.13 (Linux)

Packet Radio Mailbox

DB0FHN

[JN59NK Nuernberg]

 Login: GUEST





  
I0OJJ  > KEPS     30.11.24 10:23l 370 Lines 17642 Bytes #999 (0) @ AMSAT
BID : ORB24335.1
Read: DJ6UX GUEST
Subj: 2Line Orbital Elements 24335.AMSAT
Path: DB0FHN<DB0FFL<OE5XBL<OE6XPE<DB0ERF<IZ3LSV<I0OJJ
Sent: 241130/0411z @:I0OJJ.ITA.EU [Rome] obcm1.08-6-g5b69
From: I0OJJ @ I0OJJ.ITA.EU (Gustavo)
To:   KEPS @ AMSAT
X-Info: This message was generated automatically


QST de W1STR

AMSAT Orbital Elements for Amateur Satellites in TLE Format
From Orbital Analysis Office
New England Sci-Tech STEM Education Center
Natick, MA November 30, 2024
To all radio amateurs


These element sets describe the orbits of various satellites 
in use by the amateur radio community. For details see:
www.amsat.org/keplerian-elements-formats/

A daily update of element sets is available at:
www.amsat.org/tle/daily-bulletin.txt
or without bulletin text:
www.amsat.org/tle/dailytle.txt


AO-07
1 07530U 74089B   24334.42964228 -.00000017  00000-0  18193-3 0  9990
2 07530 101.9895 330.6915 0012344 128.2099  16.0247 12.53683183289988
UO-11
1 14781U 84021B   24334.85592423  .00005176  00000-0  56754-3 0  9999
2 14781  97.7282 299.5040 0006206 246.2101 113.8465 14.88140202194111
AO-27
1 22825U 93061C   24334.38992825  .00000514  00000-0  21401-3 0  9991
2 22825  98.7672  28.7172 0007657 321.4616  38.6019 14.30667901626508
FO-29
1 24278U 96046B   24333.63192148  .00000016  00000-0  49613-4 0  9991
2 24278  98.5868 246.7545 0350893 122.2661 241.2989 13.53223223396672
NOAA-15
1 25338U 98030A   24334.74759103  .00000556  00000-0  24692-3 0  9995
2 25338  98.5545 358.3284 0009964 194.9265 165.1623 14.26810585381046
GO-32
1 25397U 98043D   24334.20386869  .00000414  00000-0  19967-3 0  9992
2 25397  98.9461 303.5922 0002192  62.9368 297.2034 14.24200037371121
ISS
1 25544U 98067A   24334.77790442  .00019537  00000-0  34875-3 0  9991
2 25544  51.6379 215.0107 0006872 282.3276  77.6944 15.50038682484238
NO-44
1 26931U 01043C   24333.83001102  .00000937  00000-0  38301-3 0  9996
2 26931  67.0510 266.1201 0007075 261.5150  98.5150 14.31518723209519
SO-50
1 27607U 02058C   24334.65608823  .00004332  00000-0  57849-3 0  9999
2 27607  64.5557  72.4345 0033175  28.1264 332.1624 14.80403935181012
CO-55
1 27844U 03031E   24334.76770306  .00001226  00000-0  55623-3 0  9999
2 27844  98.6781 339.5478 0010265  30.1028 330.0739 14.23670002111376
CO-57
1 27848U 03031J   24333.99651434  .00001017  00000-0  47016-3 0  9992
2 27848  98.6812 338.9313 0010456  47.6017 312.6044 14.23051141111023
RS-22
1 27939U 03042A   24334.84188750  .00004249  00000-0  69596-3 0  9993
2 27939  98.3067 134.0215 0010645 255.8723 240.7469 14.71274812132622
NOAA-18
1 28654U 05018A   24334.79678970  .00000607  00000-0  34621-3 0  9990
2 28654  98.8624  50.2977 0013400 316.2948  43.7162 14.13436612  6656
CO-58
1 28895U 05043F   24333.86147960  .00006209  00000-0  10540-2 0  9999
2 28895  98.2230 110.3456 0014917 193.9238 166.1558 14.69475493 18851
CO-65
1 32785U 08021C   24334.49217537  .00012802  00000-0  10156-2 0  9998
2 32785  97.7706 299.0417 0012473 141.7813 218.4298 15.00593741900308
AAUSAT2
1 32788U 08021F   24333.67753620  .00081144  00000-0  23920-2 0  9996
2 32788  97.6039 316.2306 0003625  33.7937 326.3536 15.34699904903384
CO-66
1 32791U 08021J   24334.35881074  .00024742  00000-0  14943-2 0  9997
2 32791  97.7083 305.5006 0007312  97.6668 262.5392 15.10664227901476
RS-30
1 32953U 08025A   24334.78052954  .00000069  00000-0  42547-3 0  9993
2 32953  82.5034 346.4894 0020663 103.3317 257.0069 12.43154222749701
PRISM
1 33493U 09002B   24333.89531307  .00090929  00000-0  24108-2 0  9990
2 33493  98.1802  37.4483 0007919  35.7609 324.4163 15.37946542864172
NOAA-19
1 33591U 09005A   24334.77247654  .00000550  00000-0  31765-3 0  9998
2 33591  99.0265  32.1632 0013828 181.7039 178.4088 14.13214494815016
SRMSAT
1 37841U 11058D   24333.94366991  .00000801  00000-0  29258-3 0  9998
2 37841  19.9713 240.1620 0011873 106.4566 336.9204 14.11296278677860
RS-40
1 38735U 12041C   24333.91068677  .00000020  00000-0  77286-4 0  9999
2 38735  82.4774  67.1695 0017174 216.9512 143.0385 12.42621106559637
ZACUBE-1
1 39417U 13066B   24334.35984357  .00015425  00000-0  14559-2 0  9993
2 39417  97.7560 287.1903 0046555 335.9711  23.9335 14.93007542596194
Delfi-N3xt
1 39428U 13066N   24333.65313582  .00020803  00000-0  23599-2 0  9993
2 39428  97.8364 248.1202 0090449 274.3315  84.7568 14.83394309590427
GOMX-1
1 39430U 13066Q   24334.74700721  .00005217  00000-0  83425-3 0  9999
2 39430  97.7052 199.0666 0137464  85.5605 276.1289 14.66023303587285
LO-74
1 39440U 13066AA  24334.28253373  .00010276  00000-0  11145-2 0  9995
2 39440  97.8302 274.8560 0068060  92.9816 267.9191 14.86648942594036
AO-73
1 39444U 13066AE  24334.14713440  .00019242  00000-0  16389-2 0  9997
2 39444  97.7395 290.6520 0042624 313.4575  46.3104 14.97104210595338
DTUSAT-2
1 40030U 14033W   24333.86619639  .00017721  00000-0  13103-2 0  9999
2 40030  98.0316 291.3894 0010586   5.5748 354.5592 15.03217433567900
EO-80
1 40032U 14033Y   24334.16288945  .00017964  00000-0  13259-2 0  9998
2 40032  98.0218 291.6051 0007436 298.7747  61.2730 15.03303391567934
XW-2C
1 40906U 15049H   24334.78027495  .00147591  00000-0  13730-2 0  9999
2 40906  97.4576 358.0956 0006845  69.9498 290.2499 15.66901553510151
LILACSAT-2
1 40908U 15049K   24334.77733697  .00022266  00000-0  71678-3 0  9995
2 40908  97.5192 345.2924 0012709 119.8047 240.4459 15.32153613508791
IO-86
1 40931U 15052B   24331.15516653  .00002068  00000-0  18982-3 0  9992
2 40931   6.0006 275.0072 0013182 221.8228 138.0892 14.78373291495468
ChubuSat-2
1 41338U 16012B   24334.61280802  .00013109  00000-0  73779-3 0  9992
2 41338  31.0015  43.4244 0010750 102.8200 257.3640 15.11990318482625
ChubuSat-3
1 41339U 16012C   24334.57312805  .00011945  00000-0  69090-3 0  9994
2 41339  31.0082  43.4860 0010837 104.6177 255.5664 15.10992957482584
Horyu-4
1 41340U 16012D   24334.67865344  .00033897  00000-0  13113-2 0  9992
2 41340  31.0016 330.9871 0009941 224.8655 135.1184 15.24979971483351
Lapan A3
1 41603U 16040E   24334.78414160  .00009015  00000-0  33688-3 0  9998
2 41603  97.1388 341.2205 0009956 226.7061 133.3350 15.27526225468487
Pratham
1 41783U 16059A   24333.50142076  .00002762  00000-0  51227-3 0  9991
2 41783  97.8296 345.1542 0031083 217.1446 142.7607 14.65704994436605
CAS-2T
1 41847U 16066G   24334.47521726  .00002912  00000-0  42470-3 0  9997
2 41847  98.4449  44.5248 0350529  39.2819 323.3247 14.42469903423316
CAS-4B
1 42759U 17034B   24334.52469656  .00048379  00000-0  11771-2 0  9991
2 42759  43.0153   5.0739 0013266  33.0315 327.1368 15.40121814412781
CAS-4A
1 42761U 17034D   24334.50790524  .00049048  00000-0  11814-2 0  9995
2 42761  43.0189   3.3352 0013853  42.5383 317.6544 15.40413912412791
D-SAT
1 42794U 17036AF  24333.67176959  .00019307  00000-0  12049-2 0  9996
2 42794  97.4948 310.0589 0100005 309.5355  49.7065 15.05399145405429
TechnoSat
1 42829U 17042E   24334.73365183  .00009018  00000-0  74322-3 0  9990
2 42829  97.3856 146.8822 0011415 236.5403 123.4730 14.99214310401954
AO-91
1 43017U 17073E   24334.61457547  .00016212  00000-0  89600-3 0  9996
2 43017  97.5515 204.5836 0195778  97.8895 264.4599 14.99007530380390
S-Net D
1 43186U 18014G   24334.67843669  .00013452  00000-0  87142-3 0  9991
2 43186  97.5766 233.8226 0010196 152.6153 207.5615 15.08212009373412
S-Net B
1 43187U 18014H   24334.68175845  .00013560  00000-0  87852-3 0  9995
2 43187  97.5769 233.7872 0011193 148.6596 211.5302 15.08197682373413
S-Net A
1 43188U 18014J   24333.94956866  .00013220  00000-0  85677-3 0  9990
2 43188  97.5771 233.1929 0010804 151.9284 208.2529 15.08194257373300
S-Net C
1 43189U 18014K   24334.68378533  .00013297  00000-0  86127-3 0  9997
2 43189  97.5789 233.8976 0012835 143.6908 216.5194 15.08194808371968
Ten-Koh
1 43677U 18084G   24334.43090121  .00007959  00000-0  67058-3 0  9993
2 43677  98.0782 133.3047 0012939 188.5652 171.5350 14.98421443331440
PO-101
1 43678U 18084H   24334.75775424  .00005034  00000-0  44548-3 0  9996
2 43678  98.0871 137.9638 0008137 193.9253 166.1744 14.96740343331671
QO-100
1 43700U 18090A   24333.38452296  .00000171  00000-0  00000-0 0  9995
2 43700   0.0163 298.8574 0002025 351.9165 301.2895  1.00274094 22007
MinXSS-2
1 43758U 18099A   24334.78990336  .00030122  00000-0  15394-2 0  9997
2 43758  97.5332  35.1816 0015273 106.5294 253.7618 15.16517456327811
AO-95
1 43770U 18099N   24333.11938807  .00019082  00000-0  11353-2 0  9995
2 43770  97.5239  27.8190 0012681 157.1405 203.0392 15.11218249327270
RANGE-B
1 43772U 18099Q   24334.06581633  .00035249  00000-0  16931-2 0  9993
2 43772  97.5039  33.1374 0005004  62.9325 297.2420 15.18742110327665
RANGE-A
1 43773U 18099R   24333.58595936  .00011707  00000-0  81015-3 0  9990
2 43773  97.4802  21.6760 0013402 129.0595 231.1827 15.05762466327142
MOVE-II
1 43780U 18099Y   24333.43872208  .00068488  00000-0  22396-2 0  9996
2 43780  97.4986  36.2407 0005375 119.7806 240.3970 15.31440671327910
SNUSat 2
1 43782U 18099AA  24333.92466368  .00016396  00000-0  10209-2 0  9999
2 43782  97.4920  26.7919 0014643  98.5995 261.6894 15.09569918327386
SnugLite
1 43784U 18099AC  24334.11432399  .00020101  00000-0  11874-2 0  9998
2 43784  97.4732  26.2870 0005158 102.4544 257.7264 15.11522083327502
ITASat 1
1 43786U 18099AE  24334.08969132  .00015302  00000-0  97932-3 0  9993
2 43786  97.4892  26.9366 0016570 145.4437 214.7872 15.08553199327399
EAGLET 1
1 43790U 18099AJ  24334.14553776  .00010770  00000-0  74048-3 0  9995
2 43790  97.5087  27.4026 0014344 124.4967 235.7617 15.06014266327072
ESEO
1 43792U 18099AL  24334.73455670  .00005255  00000-0  41306-3 0  9999
2 43792  97.4861  23.5719 0010079  89.1944 271.0436 15.01241993327023
CSIM
1 43793U 18099AM  24333.80228814  .00074254  00000-0  24600-2 0  9997
2 43793  97.5134  38.4480 0009169  96.7884 263.4400 15.30966955327810
